Temp
77 75 71 75 75 74 70 68 67 69 73 68 67 68 73 75 72 72 74 78 79 80 85 86 84 85 84 83 81 79 78 78 79 79 80 81 81 82 83 84 83 84 85 84
74 71 77 77 74 72 71 69 68 69 71 69 68 67 72 75 74 75 75 76 78 81 81 81 83 83 83 82 81 80 79 78 79 81 81 82 82 85 85 85 85 85 85 84
71 74 77 76 73 71 73 70 69 68 68 70 67 67 68 73 76 78 78 79 80 79 79 80 81 82 84 82 80 80 79 79 80 80 81 81 81 82 82 83 85 85 85 86
73 79 74 73 72 73 69 74 74 69 67 62 68 59 68 70 70 73 77 78 78 80 80 82 82 81 83 83 83 82 81 79 80 79 80 79 82 83 85 85 86 86 85 85
71 73 73 72 74 75 73 74 71 69 67 65 64 60 71 66 69 71 75 77 80 83 83 82 81 81 79 84 83 83 81 80 80 79 80 81 80 84 85 84 82 82 83 85
75 78 77 79 79 77 77 71 69 67 65 59 64 64 68 70 72 74 77 79 80 81 83 83 83 80 73 81 84 83 80 79 79 79 79 79 79 80 82 83 83 84 85 86
72 74 80 79 75 74 75 71 63 60 58 61 64 63 71 75 77 76 78 79 81 82 83 83 82 78 71 80 78 83 80 78 79 79 80 80 80 80 80 81 85 84 85 85
65 64 74 80 78 75 72 74 65 54 55 63 63 62 74 77 79 79 79 80 81 81 83 82 82 79 73 80 80 79 80 79 78 80 80 80 80 82 83 83 85 85 86 87
63 65 76 77 80 81 70 68 77 65 63 62 68 70 77 76 76 76 77 77 77 80 82 82 83 82 74 80 80 75 75 77 79 80 80 80 80 80 82 81 81 84 83 86
73 65 76 78 80 76 77 78 68 68 56 55 63 62 69 73 74 75 76 77 77 79 80 82 81 80 80 83 83 81 82 80 80 81 82 82 82 81 82 81 80 80 82 82
78 72 71 74 73 74 71 72 69 71 67 62 60 66 77 75 77 77 80 78 78 79 79 80 80 79 79 79 77 82 82 81 79 80 82 81 82 83 82 82 82 82 82 82
77 75 66 71 78 77 78 75 75 67 61 64 65 68 76 77 79 80 80 79 80 79 81 81 81 79 78 75 79 79 79 79 79 81 78 80 82 82 83 82 83 83 82 83
74 70 63 67 73 73 72 73 77 74 72 63 64 69 74 76 76 80 81 79 77 77 78 79 79 78 78 78 78 79 78 78 79 80 79 79 78 78 81 82 82 83 82 83
75 73 68 65 70 75 69 70 72 78 69 69 70 74 80 74 76 78 78 79 78 77 77 79 79 78 79 79 78 77 78 80 79 79 79 77 79 77 76 81 80 81 82 81
77 68 68 73 74 73 75 73 70 72 76 70 75 70 80 77 79 80 80 78 77 77 78 78 79 78 77 77 77 78 79 78 78 78 78 78 78 78 78 76 76 77 79 81
69 67 64 67 70 72 71 74 73 74 71 71 73 73 82 78 75 75 77 78 78 78 80 79 79 78 77 78 77 77 78 78 78 77 77 78 77 77 73 78 78 78 78 78
65 68 63 62 65 66 63 71 71 74 75 78 70 80 75 74 75 76 76 78 80 81 80 80 80 80 79 79 78 77 77 79 78 78 78 77 76 76 76 77 76 77 77 78
65 63 64 64 61 56 72 76 77 76 78 77 78 79 79 82 82 82 83 82 82 82 81 81 83 82 82 82 81 79 79 77 77 77 77 77 76 76 76 76 76 76 76 76
66 65 63 62 62 66 72 72 72 72 73 79 78 80 78 77 80 79 82 85 85 84 83 83 84 83 82 82 80 78 77 77 77 77 77 77 77 76 76 76 76 76 76 76
66 65 64 62 57 54 68 73 78 77 68 80 79 78 76 78 76 82 81 84 83 85 84 83 82 82 81 80 81 80 78 78 78 79 79 78 78 77 76 76 76 76 75 75
59 60 57 61 60 67 74 76 77 62 68 73 80 80 75 77 85 87 84 83 86 84 83 83 82 82 82 81 81 80 78 78 80 80 79 78 78 77 78 76 76 76 76 75
54 58 60 63 58 56 72 73 70 74 72 74 77 78 77 81 79 83 82 82 82 80 81 82 82 82 82 81 80 78 78 79 78 78 78 78 77 78 78 76 76 75 73 71
53 56 54 60 67 65 67 70 67 69 67 71 71 77 78 80 78 80 81 81 81 81 81 83 82 80 79 79 79 78 78 77 77 77 77 76 76 77 77 74 74 76 75 74
55 61 58 59 63 64 67 68 69 69 69 71 73 73 77 78 80 80 79 80 80 80 79 82 80 79 76 76 76 77 76 76 76 76 75 75 75 74 76 77 75 74 74 74
55 57 59 60 65 66 67 69 66 68 70 71 73 74 75 80 78 79 77 78 79 79 79 80 79 79 78 76 75 76 75 76 75 75 74 74 76 74 75 74 73 68 68 64
58 52 56 58 64 63 66 69 69 68 68 71 70 70 76 79 78 78 77 78 78 77 77 77 78 78 76 76 75 74 75 76 75 74 75 76 74 75 76 75 73 51 51 48
MSLP
1009.07 1008.84 1008.38 1008.67 1008.94 1009.25 1009.56 1009.69 1009.72 1009.90 1010.24 1010.77 1010.73 1010.58 1010.46 1010.80 1011.22 1010.99 1011.13 1011.28 1011.47 1011.47 1011.74 1012.49 1013.27 1013.77 1014.34 1014.97 1015.61 1016.11 1016.80 1017.24 1017.46 1017.66 1017.61 1017.73 1017.71 1017.84 1017.75 1017.75 1017.75 1017.89 1017.96 1018.12
1008.94 1008.02 1008.27 1008.64 1008.88 1009.07 1009.12 1009.13 1009.17 1009.68 1010.01 1010.46 1010.36 1009.84 1009.56 1009.72 1009.66 1009.85 1010.20 1010.50 1010.71 1011.09 1011.52 1012.16 1012.76 1013.38 1013.90 1014.55 1015.18 1015.68 1016.30 1016.85 1017.14 1017.18 1017.23 1017.27 1017.33 1017.38 1017.21 1017.18 1017.44 1017.71 1017.84 1018.12
1008.03 1008.02 1008.13 1008.22 1008.49 1008.54 1008.40 1008.59 1008.83 1009.23 1009.83 1010.19 1010.10 1008.81 1008.46 1008.52 1008.79 1009.00 1009.29 1009.60 1009.99 1010.49 1011.02 1011.61 1012.23 1012.80 1013.49 1014.09 1014.71 1015.23 1015.86 1016.35 1016.77 1017.08 1017.22 1017.32 1017.28 1017.27 1017.30 1017.35 1017.45 1017.57 1017.82 1018.01
1008.20 1007.89 1008.02 1008.00 1007.98 1008.16 1007.67 1008.31 1008.53 1009.02 1009.32 1009.37 1009.68 1008.40 1007.60 1007.56 1007.78 1008.08 1008.07 1008.72 1009.17 1009.83 1010.48 1011.02 1011.67 1012.30 1012.81 1013.47 1014.19 1014.87 1015.43 1016.01 1016.50 1016.88 1016.94 1016.79 1016.64 1016.70 1016.92 1017.12 1017.32 1017.51 1017.77 1017.95
1007.53 1007.50 1007.38 1007.35 1007.09 1007.83 1007.69 1008.05 1008.26 1008.82 1009.14 1009.13 1009.08 1008.77 1006.73 1007.24 1006.86 1006.84 1007.05 1007.42 1008.03 1008.60 1009.44 1010.17 1010.84 1011.57 1012.34 1013.05 1013.63 1014.40 1015.02 1015.69 1016.09 1016.51 1016.73 1016.79 1016.77 1016.76 1016.95 1017.24 1017.45 1017.59 1017.83 1017.90
1007.30 1007.42 1007.13 1006.36 1006.89 1007.26 1007.59 1008.05 1008.45 1008.87 1008.92 1008.45 1008.16 1007.89 1005.97 1005.90 1005.68 1005.63 1005.89 1006.28 1007.00 1007.93 1008.66 1009.47 1010.43 1011.51 1012.46 1012.95 1013.33 1013.94 1014.64 1015.24 1015.86 1016.17 1016.54 1016.76 1016.78 1016.85 1016.93 1016.97 1017.16 1017.36 1017.64 1017.81
1006.91 1006.62 1006.41 1006.40 1006.48 1007.11 1007.19 1007.21 1007.34 1007.74 1008.06 1007.21 1007.76 1007.30 1005.21 1005.15 1005.11 1005.03 1005.07 1005.33 1006.13 1007.10 1007.98 1008.80 1009.80 1011.05 1011.94 1012.35 1013.02 1013.43 1014.21 1014.71 1015.43 1015.95 1016.24 1016.51 1016.64 1016.90 1016.83 1016.76 1016.80 1017.01 1017.19 1017.43
1006.12 1005.61 1005.55 1005.46 1005.39 1005.53 1006.24 1006.28 1006.16 1006.34 1006.90 1006.59 1007.20 1005.81 1004.16 1004.51 1004.74 1004.70 1004.82 1005.03 1005.74 1006.58 1007.27 1008.13 1009.13 1010.26 1011.22 1011.77 1012.54 1012.98 1013.68 1014.20 1014.90 1015.42 1015.89 1016.28 1016.47 1016.62 1016.69 1016.80 1016.75 1016.80 1016.87 1016.99
1005.57 1005.12 1004.76 1004.73 1004.82 1004.97 1006.03 1006.15 1005.82 1006.03 1006.92 1006.46 1005.62 1004.91 1004.06 1004.09 1004.26 1004.53 1004.80 1005.16 1005.60 1006.19 1006.94 1007.65 1008.61 1009.60 1010.64 1011.09 1011.79 1012.42 1013.23 1013.81 1014.40 1014.89 1015.41 1015.80 1016.20 1016.43 1016.49 1016.69 1016.78 1016.74 1016.86 1016.84
1004.93 1004.84 1004.35 1004.28 1004.67 1005.10 1004.83 1005.00 1005.54 1005.70 1005.55 1005.14 1004.83 1004.41 1003.53 1003.58 1003.88 1004.39 1004.63 1005.00 1005.50 1006.20 1006.88 1007.60 1008.41 1009.29 1010.09 1010.71 1011.42 1012.12 1012.72 1013.24 1013.78 1014.38 1014.85 1015.20 1015.65 1016.07 1016.34 1016.51 1016.67 1016.77 1016.68 1016.83
1004.37 1004.74 1004.41 1004.44 1003.97 1003.68 1004.74 1004.56 1004.92 1005.07 1005.19 1004.31 1004.02 1003.23 1003.05 1003.16 1003.43 1003.89 1004.31 1004.92 1005.41 1005.95 1006.53 1007.34 1008.27 1009.27 1010.09 1010.87 1011.33 1011.68 1012.31 1012.86 1013.52 1014.04 1014.35 1014.86 1015.15 1015.54 1015.94 1016.09 1016.13 1016.38 1016.49 1016.65
1004.16 1003.96 1003.68 1003.60 1003.67 1003.84 1003.70 1003.44 1003.74 1003.69 1004.48 1004.63 1004.10 1003.13 1002.92 1003.14 1003.40 1003.72 1004.19 1004.78 1005.39 1005.95 1006.47 1007.20 1008.02 1009.01 1009.88 1010.60 1010.82 1011.57 1012.14 1012.64 1013.12 1013.55 1014.18 1014.44 1014.84 1015.16 1015.39 1015.62 1015.70 1015.95 1016.06 1016.21
1003.91 1003.71 1003.42 1002.97 1003.59 1003.71 1003.19 1003.22 1002.97 1003.14 1003.41 1003.57 1003.18 1002.51 1002.86 1003.18 1003.42 1003.62 1004.01 1004.75 1005.58 1006.08 1006.66 1007.28 1007.93 1008.78 1009.47 1010.15 1010.65 1011.19 1011.78 1012.26 1012.71 1013.20 1013.69 1014.01 1014.45 1014.72 1014.75 1014.99 1015.26 1015.53 1015.72 1015.69
1003.68 1003.12 1002.58 1001.75 1001.69 1001.92 1002.45 1002.53 1002.80 1001.98 1002.22 1002.40 1002.33 1001.90 1002.08 1002.88 1003.11 1003.51 1004.07 1004.66 1005.45 1006.02 1006.65 1007.18 1007.77 1008.43 1009.11 1009.78 1010.38 1010.96 1011.41 1011.84 1012.32 1012.78 1013.23 1013.55 1013.85 1014.32 1014.73 1014.84 1015.09 1015.26 1015.29 1015.44
1003.85 1003.00 1002.78 1001.87 1001.62 1001.89 1001.70 1001.59 1001.84 1001.66 1001.27 1001.54 1001.17 1001.73 1001.29 1002.19 1002.40 1003.09 1003.70 1004.55 1005.24 1005.83 1006.52 1007.08 1007.52 1008.11 1008.82 1009.44 1009.97 1010.55 1010.95 1011.50 1011.95 1012.42 1012.83 1013.11 1013.55 1013.87 1014.26 1014.64 1014.81 1014.89 1014.89 1014.83
1004.34 1003.23 1002.97 1002.08 1001.69 1001.63 1001.44 1001.37 1001.42 1001.31 1001.46 1001.47 1001.26 1001.15 1001.06 1001.94 1002.72 1003.23 1003.73 1004.31 1004.87 1005.44 1006.04 1006.80 1007.36 1007.97 1008.49 1009.09 1009.64 1010.21 1010.74 1011.24 1011.76 1012.14 1012.53 1012.90 1013.36 1013.57 1013.94 1013.99 1014.32 1014.45 1014.45 1014.57
1005.03 1003.84 1003.45 1002.41 1002.25 1002.03 1001.68 1000.94 1000.96 1000.71 1000.76 1000.49 1000.64 1000.25 1001.09 1001.62 1002.16 1002.58 1003.21 1003.80 1004.25 1004.93 1005.65 1006.37 1006.91 1007.46 1008.16 1008.71 1009.33 1009.83 1010.44 1010.97 1011.41 1011.78 1012.12 1012.52 1012.87 1013.19 1013.51 1013.68 1013.92 1013.99 1014.18 1014.24
1005.21 1004.45 1003.70 1002.62 1002.61 1001.36 1000.65 1000.84 1000.51 1000.11 999.86 1000.40 1000.45 1000.35 1000.65 1000.88 1001.23 1002.03 1002.38 1002.92 1003.72 1004.49 1005.29 1005.98 1006.63 1007.26 1007.86 1008.50 1009.23 1009.86 1010.26 1010.69 1011.06 1011.42 1011.78 1012.21 1012.56 1012.80 1013.04 1013.33 1013.49 1013.64 1013.78 1013.75
1005.15 1004.61 1003.46 1002.51 1001.83 1001.34 1000.52 1000.77 1000.61 1000.45 1000.08 1000.06 1000.21 1000.41 1000.77 1001.45 1001.78 1002.13 1002.51 1002.88 1003.47 1004.27 1005.13 1005.77 1006.55 1007.21 1007.78 1008.36 1009.08 1009.65 1010.12 1010.44 1010.70 1010.95 1011.28 1011.64 1011.98 1012.32 1012.63 1012.84 1013.03 1013.21 1013.28 1013.26
1004.43 1004.25 1003.62 1002.97 1001.79 1000.72 1000.58 1000.85 1000.97 1001.19 1000.64 999.77 1000.14 1000.51 1001.00 1001.37 1001.06 1000.74 1001.92 1002.82 1003.57 1004.28 1005.10 1005.86 1006.62 1007.34 1007.94 1008.44 1008.84 1009.17 1009.66 1010.03 1010.28 1010.62 1010.92 1011.21 1011.58 1011.80 1012.10 1012.36 1012.58 1012.76 1012.81 1012.66
1004.56 1004.08 1003.48 1002.76 1001.80 1000.90 1000.81 1000.74 1001.84 1002.22 1001.83 1000.88 1000.28 1000.36 1001.01 1000.90 1000.21 1000.12 1001.51 1002.53 1003.18 1004.16 1005.17 1006.03 1006.79 1007.29 1007.89 1008.43 1008.84 1009.09 1009.54 1009.81 1010.22 1010.58 1010.86 1011.15 1011.45 1011.65 1011.88 1012.08 1012.27 1012.30 1012.33 1012.30
1005.89 1004.23 1003.36 1003.05 1002.49 1001.86 1001.67 1001.97 1001.84 1002.54 1002.35 1001.67 1001.19 1001.05 1000.51 1000.69 1000.96 1000.98 1001.51 1002.37 1003.22 1004.25 1005.20 1006.02 1006.65 1007.30 1008.00 1008.61 1009.03 1009.22 1009.53 1010.02 1010.33 1010.64 1010.90 1011.14 1011.42 1011.58 1011.81 1011.91 1011.96 1012.00 1012.11 1012.10
1006.79 1006.25 1005.34 1004.10 1002.66 1003.00 1002.78 1002.38 1002.35 1002.90 1003.36 1002.65 1002.37 1001.70 1001.51 1000.92 1001.12 1001.48 1001.91 1002.67 1003.39 1004.32 1005.17 1005.98 1006.62 1007.42 1008.26 1008.75 1009.06 1009.22 1009.66 1010.14 1010.39 1010.64 1010.82 1011.04 1011.33 1011.52 1011.67 1011.83 1011.84 1011.74 1011.90 1011.92
1006.55 1006.75 1006.10 1005.12 1004.10 1003.88 1004.03 1003.76 1003.85 1003.33 1004.01 1003.48 1002.93 1002.23 1001.74 1001.39 1001.27 1001.61 1002.19 1002.91 1003.65 1004.48 1005.27 1006.01 1006.77 1007.50 1008.26 1008.86 1009.25 1009.47 1009.79 1010.03 1010.33 1010.62 1010.91 1011.16 1011.34 1011.49 1011.53 1011.61 1011.74 1011.92 1011.90 1011.83
1007.28 1007.52 1006.54 1005.71 1004.80 1004.45 1004.30 1004.14 1004.35 1003.59 1004.33 1003.87 1002.91 1002.20 1001.72 1001.45 1001.76 1001.70 1002.36 1003.21 1003.81 1004.51 1005.46 1006.07 1006.67 1007.45 1008.19 1008.89 1009.37 1009.64 1009.82 1010.01 1010.21 1010.57 1010.87 1011.12 1011.26 1011.38 1011.41 1011.55 1011.73 1012.00 1012.27 1012.70
1007.50 1007.27 1007.22 1005.83 1005.74 1005.63 1005.10 1004.80 1004.95 1004.49 1004.45 1004.20 1003.47 1002.54 1001.80 1001.42 1001.49 1001.98 1002.57 1003.15 1004.01 1004.91 1005.57 1006.22 1006.86 1007.42 1008.23 1008.81 1009.24 1009.55 1009.86 1010.00 1010.23 1010.46 1010.65 1010.78 1011.06 1011.16 1011.08 1011.20 1011.52 1012.30 1012.44 1012.62
Wind_Speed
3 7 13 9 9 2 3 5 7 2 5 9 11 11 11 10 15 15 13 14 15 16 13 12 13 13 11 11 11 11 10 8 7 7 7 6 7 6 5 5 5 6 5 4
5 15 7 4 6 7 6 8 7 1 5 10 5 15 16 14 19 19 18 17 17 14 10 13 15 14 14 12 12 11 11 10 8 6 4 2 3 3 1 3 4 4 4 4
11 2 9 7 5 7 9 9 7 4 5 5 7 9 8 11 17 15 19 19 18 17 13 14 16 16 14 14 13 12 11 10 9 8 4 3 3 3 3 4 4 5 5 5
7 6 6 4 7 8 13 4 9 7 6 4 2 6 6 5 12 17 17 19 17 17 14 14 15 16 16 16 13 12 11 12 10 10 7 6 5 5 3 4 4 5 5 5
7 6 13 17 16 8 5 4 1 4 3 5 4 5 3 2 7 17 18 18 19 18 16 17 18 17 16 15 14 14 13 12 11 11 10 7 6 3 3 3 5 4 4 5
13 1 5 15 6 9 6 8 8 5 1 4 2 4 7 3 4 3 12 19 20 19 18 17 14 11 8 11 13 13 14 13 12 12 12 11 8 6 5 5 5 6 4 4
9 13 9 4 7 4 7 6 1 2 2 4 1 5 10 5 9 11 9 13 19 19 18 16 16 15 12 16 13 13 15 15 13 13 12 12 11 9 8 6 6 6 5 5
11 10 10 10 15 8 12 8 4 5 5 5 2 6 4 2 7 6 4 7 13 18 18 18 18 16 13 16 16 13 14 14 13 13 13 11 10 7 7 7 6 6 6 5
6 6 2 7 6 10 7 7 1 3 1 5 2 6 11 3 4 2 2 6 11 16 18 20 16 16 14 17 17 15 12 12 13 14 12 12 10 10 8 8 7 6 6 6
7 7 5 2 6 3 6 11 5 3 5 7 3 5 6 4 6 4 4 6 8 11 14 15 14 14 14 15 15 14 14 15 13 13 12 12 12 11 9 7 8 8 7 7
10 6 3 1 10 14 6 6 2 2 3 4 4 5 3 5 6 9 7 7 7 10 13 14 14 11 11 11 10 13 13 12 11 12 12 13 12 12 10 9 9 9 8 7
11 9 13 18 1 1 4 7 14 9 8 1 4 5 2 4 6 5 5 7 6 8 10 10 11 12 13 12 12 12 10 10 10 10 10 12 11 11 11 11 11 9 9 7
10 8 7 6 7 3 5 7 8 5 4 7 6 5 4 3 6 8 6 7 7 8 9 10 11 12 12 12 12 12 10 10 10 10 11 11 11 11 12 12 11 10 10 9
11 6 10 9 7 4 6 8 11 12 6 7 9 12 7 6 6 7 7 9 10 10 9 9 8 9 10 11 11 11 10 10 9 10 10 9 10 8 6 7 9 10 9 9
9 9 8 14 11 8 11 11 15 13 11 10 11 10 15 8 11 11 10 10 11 11 10 9 9 8 8 9 10 10 9 9 9 9 10 10 7 7 7 5 5 7 8 9
3 6 3 6 3 10 13 11 15 13 7 4 5 8 7 3 5 9 10 11 11 10 9 9 8 9 9 10 10 10 11 11 10 10 10 8 8 8 5 6 6 5 6 7
5 4 5 7 1 5 5 15 16 13 11 11 9 11 7 7 11 13 13 12 12 11 10 10 10 9 9 10 9 10 9 10 11 10 8 8 8 8 8 7 6 7 7 6
6 2 2 4 3 16 1 4 15 19 15 13 5 8 10 8 8 10 13 14 12 11 11 10 9 9 9 9 10 9 9 8 8 8 8 8 8 7 6 7 9 8 8 9
18 6 4 7 8 5 4 4 6 11 12 16 14 5 4 4 8 6 10 10 11 9 9 10 9 8 8 10 11 10 8 7 6 6 5 5 5 5 6 7 7 7 8 8
14 9 7 4 14 16 6 4 4 2 10 11 15 8 9 12 9 9 16 13 11 11 10 10 11 10 9 8 9 9 8 7 6 6 5 5 5 4 4 4 5 5 6 6
5 6 12 11 12 16 5 8 5 4 4 11 10 11 14 12 3 6 17 14 13 13 13 12 11 10 8 8 8 8 7 6 4 4 5 5 4 3 2 3 3 4 5 5
5 5 9 13 15 15 3 4 21 4 6 8 7 8 16 11 4 11 17 17 16 15 14 14 11 9 8 8 7 7 6 4 4 4 5 5 4 3 2 4 4 4 5 4
7 4 6 6 8 5 5 1 3 6 5 6 10 8 10 11 9 10 14 16 15 16 14 12 11 10 6 6 5 6 3 5 4 5 5 4 3 2 2 3 4 5 4 5
0 3 4 9 2 6 4 2 4 7 8 11 8 12 10 11 10 11 14 13 14 14 15 13 12 10 8 5 5 4 3 4 5 6 5 3 3 2 3 3 3 4 5 5
1 3 7 8 3 2 3 12 11 13 11 11 12 11 11 11 11 13 14 14 14 15 13 13 12 10 9 7 5 4 4 5 6 5 5 4 3 4 4 4 3 3 2 2
5 4 8 3 10 6 5 10 6 13 14 13 13 11 5 11 13 14 13 15 15 15 12 11 10 9 9 7 7 6 5 5 5 5 4 2 2 3 4 5 3 5 4 4
Wind_Direction
177 216 223 221 217 228 280 291 301 260 179 197 234 263 243 205 207 218 215 210 213 222 231 210 201 194 190 188 186 182 188 193 186 180 177 186 202 203 201 203 188 162 161 141
178 227 222 188 222 239 252 286 288 178 157 204 243 259 246 228 224 216 212 210 215 219 210 197 193 193 189 194 197 184 193 195 201 197 188 194 160 173 172 163 164 162 164 155
220 280 173 192 212 241 249 266 277 289 132 214 279 269 231 231 230 232 224 220 217 214 203 196 190 194 191 193 196 193 193 198 201 199 188 168 137 143 163 168 175 177 179 180
244 228 220 183 247 236 276 226 251 202 203 288 253 299 267 226 230 224 229 213 210 209 207 199 198 192 193 198 192 197 192 197 201 190 201 213 188 185 176 182 178 175 185 182
212 213 221 241 249 216 284 50 249 188 198 287 184 254 270 225 232 229 224 216 211 205 202 200 202 195 193 190 187 193 195 198 201 195 204 211 212 202 164 178 176 196 185 200
247 242 228 225 218 194 135 103 95 103 247 252 93 247 281 216 224 234 223 216 207 200 201 201 195 188 184 187 189 187 192 198 204 198 199 208 219 206 195 186 190 191 195 207
229 233 243 203 240 140 195 189 219 190 197 279 98 227 264 252 264 261 277 223 207 200 197 195 193 186 184 193 189 188 194 197 199 207 204 208 209 215 220 205 206 204 207 209
219 227 202 190 215 215 194 228 233 254 222 283 147 237 267 172 300 288 271 226 198 199 196 192 195 190 184 192 190 189 195 202 198 203 211 214 209 213 221 219 221 224 225 225
186 245 223 205 172 185 157 206 238 136 106 268 259 259 265 256 215 227 170 179 192 195 199 195 190 191 186 194 191 182 181 197 201 208 210 209 213 213 221 224 226 230 233 229
198 263 243 157 162 81 223 144 170 195 227 256 214 277 280 240 194 202 184 200 189 193 196 197 193 189 190 196 195 188 194 196 200 206 210 211 214 215 225 219 221 230 240 244
197 232 202 212 208 195 159 192 112 116 280 258 283 298 200 227 193 188 187 204 192 189 191 189 189 187 184 180 180 192 195 195 198 204 207 215 216 216 222 227 221 225 227 230
202 213 236 246 213 270 217 227 212 220 197 266 305 277 152 220 185 202 163 187 186 182 185 186 184 176 178 180 181 187 186 193 203 204 205 215 220 222 218 226 226 221 220 221
173 222 229 221 185 150 210 194 207 143 134 192 253 272 160 224 217 225 175 155 166 163 165 172 178 184 186 186 190 200 201 206 204 197 197 202 209 215 223 222 225 223 225 227
175 203 218 232 225 161 182 187 204 206 204 204 236 269 245 192 204 197 165 145 155 159 164 168 177 184 190 193 193 201 207 212 204 202 205 209 213 209 219 234 233 230 223 234
206 238 213 243 252 216 246 195 182 210 203 211 239 218 252 202 184 188 157 141 146 152 167 171 177 180 186 190 196 207 204 192 192 196 199 205 200 197 189 208 223 237 236 243
281 243 193 266 325 233 241 237 200 210 196 222 198 230 238 141 140 161 165 154 151 162 169 165 169 177 181 190 193 195 198 193 189 199 206 199 186 181 184 192 221 235 247 246
287 234 182 248 337 156 239 228 203 193 196 191 186 217 161 181 193 176 168 174 167 166 159 165 172 174 178 183 185 191 192 192 200 208 203 195 203 205 194 189 202 219 226 232
255 268 227 203 191 235 94 300 224 205 194 195 238 221 208 220 189 179 180 172 170 163 163 156 158 151 150 150 161 166 168 177 184 190 191 189 190 198 201 210 221 234 234 238
215 204 234 223 227 286 232 143 173 198 220 205 220 211 202 154 149 191 192 182 173 163 160 154 143 134 133 137 142 147 154 159 169 175 174 175 181 185 188 205 215 223 228 240
193 218 222 219 229 234 202 125 27 346 243 204 210 200 168 163 176 199 180 176 154 156 152 151 143 138 142 138 144 139 140 156 167 169 163 158 166 177 194 210 226 231 236 249
209 173 208 223 244 240 255 115 94 199 250 317 217 197 171 195 217 149 159 168 163 156 154 148 151 147 148 147 152 145 155 185 174 157 156 165 177 190 235 251 238 262 257 251
304 257 199 210 218 235 135 139 185 207 308 318 304 235 198 188 132 155 166 162 159 156 152 159 151 147 155 161 173 165 189 167 178 189 196 187 173 197 238 270 286 276 252 256
215 8 310 289 217 2 328 90 93 24 326 329 319 312 239 181 169 164 164 162 158 158 155 156 150 149 157 172 188 199 179 172 188 204 211 188 183 227 267 298 296 279 257 257
217 18 285 309 83 54 62 62 16 51 331 312 308 283 229 205 172 163 152 155 155 155 154 154 151 156 160 168 189 217 185 195 197 204 195 183 219 248 257 268 288 281 290 284
161 321 327 288 6 167 331 26 2 24 352 344 335 312 259 199 186 161 157 160 156 151 151 157 161 165 151 137 124 143 160 168 175 176 171 189 227 254 264 260 274 247 224 256
180 185 248 268 342 312 320 347 356 9 346 342 329 322 261 202 172 165 157 155 152 153 155 156 161 140 123 134 141 134 144 163 166 178 188 202 240 273 272 275 248 208 262 210